Simultaneous Nadir Overpasses (SNOs) Predictions

Prediction of SNOs between METOP-B and TERRA Satellite Orbit:

Table of predicted SNOs for the next 14.0 days since TLE Epoch: 5/10/2014
Index Date (METOP-B) Time (METOP-B) Lat,Lon (METOP-B) SZA (METOP-B ) Date (TERRA) Time (TERRA) Lat,Lon (TERRA) SZA (TERRA ) Distance(km) Time Diff (sec)
1 05/11/2014 23:09:22 -81.32, 60.11 113.72 05/11/2014 23:10:04 -81.31, 59.98 113.71 2.16 42
2 05/12/2014 00:00:02 81.32,-132.37 66.31 05/11/2014 23:59:30 81.32,-132.23 66.30 2.29 32
3 05/14/2014 18:43:46 -81.32, 126.46 114.41 05/14/2014 18:44:22 -81.32, 126.55 114.38 1.56 36
4 05/14/2014 19:34:25 81.33, -65.61 65.66 05/14/2014 19:33:48 81.33, -65.70 65.63 1.44 37
5 05/17/2014 14:18:09 -81.32,-167.25 115.07 05/17/2014 14:18:39 -81.32,-167.07 115.03 3.01 30
6 05/17/2014 15:08:48 81.32, 0.69 65.00 05/17/2014 15:08:05 81.32, 0.65 64.98 0.79 43
7 05/20/2014 09:52:32 -81.32,-100.61 115.65 05/20/2014 09:52:56 -81.33,-100.49 115.62 2.24 24
8 05/20/2014 10:43:11 81.33, 67.34 64.43 05/20/2014 10:42:22 81.33, 67.20 64.39 2.38 49
9 05/23/2014 05:26:55 -81.32, -34.04 116.19 05/23/2014 05:27:13 -81.32, -34.09 116.19 0.93 18




NCC Satellite Simultaneous Nadir Overpasses (SNOs) Prediction Service
